Probability
32 100 100 100 100 100 100 100 100 100 100 100 100 100 100 100 100 100 100 100 100 100 100 100 100 100 100 100 100 100 97 100 100 100 97 97 97 100 100 100 100 97 100
45 100 100 100 100 100 100 100 100 100 100 100 100 100 100 100 100 100 100 100 100 100 100 100 100 100 100 100 97 97 97 100 100 100 100 100 100 100 100 97 97 97 100
94 100 100 100 100 100 100 100 100 100 100 100 100 100 100 100 100 100 100 100 100 100 100 100 100 100 100 100 100 97 97 100 100 100 97 97 97 100 100 100 100 100 100
97 100 100 100 100 100 100 100 100 100 100 100 100 100 100 100 100 100 100 100 100 100 100 100 100 100 100 100 100 100 100 100 94 94 90 97 97 100 100 100 100 100 100
97 100 100 100 100 100 100 100 100 100 100 100 100 100 100 100 100 100 100 100 100 100 100 97 94 94 94 94 90 87 87 90 90 77 74 94 97 100 100 100 100 100 100
100 100 100 100 100 100 100 100 100 100 100 100 100 100 100 100 100 100 100 100 100 100 94 94 87 87 81 81 77 81 81 84 65 52 71 81 87 100 100 100 100 100 100
100 100 100 100 100 100 100 100 100 100 100 100 100 100 100 100 100 100 100 100 100 97 90 84 77 65 65 55 52 55 55 58 26 35 55 74 84 97 100 100 97 97 97
100 100 100 100 100 100 100 100 100 100 100 100 100 100 100 100 100 100 100 100 100 97 84 74 65 55 45 55 52 55 55 48 42 32 55 68 84 97 94 100 100 97 97
100 100 100 100 100 100 100 100 100 100 100 100 100 100 100 100 100 100 100 100 100 90 77 68 55 42 35 42 42 55 65 45 16 29 42 65 81 90 94 97 97 97 97
100 100 100 100 100 100 100 100 100 100 100 100 100 100 100 100 100 100 100 100 100 87 71 55 52 48 48 42 52 55 65 39 10 13 26 52 81 94 94 97 97 97 97
97 100 100 100 100 100 100 100 100 100 100 100 100 100 100 100 100 100 100 100 90 77 68 65 65 61 58 42 48 48 42 10 6 3 10 45 87 87 97 97 97 97 97
87 97 97 97 97 100 100 100 100 100 100 100 97 100 90 58 77 100 97 97 87 84 74 71 65 55 42 23 19 26 13 6 0 0 13 55 87 90 94 94 94 94 90
45 87 90 94 94 97 90 100 87 87 87 81 81 81 45 29 39 61 52 87 77 74 52 42 42 39 32 13 10 6 6 3 0 0 13 58 90 94 90 87 84 84 71
19 58 84 90 81 71 71 87 61 68 74 68 65 39 29 19 19 19 13 13 45 35 29 13 6 6 6 6 6 6 6 3 3 3 29 71 87 94 81 81 77 71 65
23 32 65 77 68 58 45 61 52 52 55 48 39 32 19 19 13 10 3 3 6 13 13 6 6 6 6 6 6 6 3 3 3 10 19 68 71 65 71 61 65 48 52
16 23 42 68 55 45 39 42 39 35 29 19 19 29 16 13 6 6 3 3 3 6 3 6 6 6 6 6 6 3 3 3 3 0 10 32 45 39 42 52 52 45 42
23 19 23 32 39 29 29 23 16 19 13 16 13 16 13 10 0 0 0 0 0 6 3 3 6 3 0 0 0 0 0 0 0 3 3 6 19 29 39 39 42 39 29
35 16 19 35 26 19 13 13 10 13 10 10 6 6 10 6 0 0 0 0 3 3 3 3 6 0 0 0 0 0 0 0 0 0 0 0 6 13 19 23 29 29 29
42 23 13 19 23 16 13 10 6 6 6 6 3 6 6 13 6 3 3 6 3 3 0 3 0 0 0 0 0 0 0 0 0 0 0 0 0 3 3 6 13 10 13
52 29 16 26 19 23 10 16 6 3 3 6 3 3 0 6 13 6 6 6 3 0 3 3 0 0 0 0 0 0 0 0 0 0 0 0 0 0 0 0 0 0 0
48 42 26 23 19 29 26 23 10 3 0 0 0 0 0 3 6 3 3 0 0 0 0 0 0 0 0 0 0 0 0 0 0 0 0 0 0 0 0 0 0 0 0
45 48 39 32 29 32 29 16 6 10 6 3 3 3 0 0 0 0 0 0 0 0 0 0 0 0 0 0 0 0 0 0 0 0 0 0 0 0 0 0 0 0 0
42 42 48 39 32 26 23 16 10 3 3 0 0 0 0 0 0 0 0 0 0 0 0 0 0 0 0 0 0 0 0 0 0 0 0 0 0 0 0 0 0 0 0
32 32 32 39 29 23 16 10 10 10 6 6 3 3 0 0 0 0 0 0 0 0 0 0 0 0 0 0 0 0 0 0 0 0 0 0 0 0 0 0 0 0 0
23 35 29 19 16 16 16 13 10 6 3 0 0 0 0 0 0 0 0 0 0 0 0 0 0 0 0 0 0 0 0 0 0 0 0 0 0 0 0 0 0 0 0
13 23 16 10 10 13 13 6 3 0 0 0 0 0 0 0 0 0 0 0 0 0 0 0 0 0 0 0 0 0 0 0 0 0 0 0 0 0 0 0 0 0 0
Height
5891 5891 5891 5891 5891 5892 5892 5893 5894 5895 5897 5897 5898 5898 5899 5900 5900 5901 5901 5901 5901 5901 5901 5902 5902 5902 5902 5902 5902 5901 5901 5901 5901 5901 5901 5900 5900 5900 5900 5900 5900 5900 5899
5889 5889 5889 5890 5890 5890 5891 5891 5892 5894 5895 5896 5897 5898 5898 5898 5899 5899 5900 5900 5900 5900 5900 5900 5900 5900 5900 5900 5900 5900 5900 5899 5899 5899 5899 5899 5898 5898 5898 5898 5898 5898 5898
5887 5888 5888 5888 5889 5889 5889 5890 5891 5892 5893 5894 5895 5896 5897 5897 5898 5898 5898 5899 5899 5899 5899 5899 5899 5899 5899 5898 5898 5898 5898 5898 5897 5897 5897 5897 5897 5896 5896 5896 5896 5896 5896
5886 5886 5886 5887 5887 5888 5888 5889 5889 5890 5891 5892 5894 5895 5895 5896 5897 5897 5897 5898 5898 5898 5898 5898 5898 5897 5897 5897 5897 5897 5896 5896 5896 5895 5895 5895 5895 5895 5894 5894 5894 5893 5893
5885 5885 5885 5886 5886 5886 5887 5888 5888 5889 5890 5891 5892 5893 5894 5895 5895 5896 5896 5896 5896 5896 5896 5896 5896 5896 5896 5896 5895 5895 5895 5894 5894 5894 5893 5893 5893 5892 5892 5892 5891 5891 5891
5884 5884 5884 5884 5885 5885 5886 5886 5887 5888 5889 5890 5891 5892 5893 5893 5894 5894 5895 5895 5894 5894 5894 5894 5895 5894 5894 5894 5893 5893 5893 5892 5892 5892 5891 5891 5891 5890 5890 5889 5889 5889 5888
5883 5883 5883 5884 5884 5885 5885 5886 5887 5888 5889 5889 5890 5891 5892 5892 5893 5893 5893 5893 5893 5893 5893 5893 5893 5893 5892 5892 5892 5891 5890 5890 5889 5889 5889 5889 5888 5888 5887 5886 5886 5886 5886
5882 5883 5883 5883 5883 5884 5885 5886 5886 5887 5888 5889 5890 5890 5891 5891 5892 5892 5892 5892 5892 5891 5891 5891 5891 5891 5891 5890 5889 5889 5888 5888 5887 5886 5886 5886 5885 5885 5885 5884 5884 5884 5884
5882 5882 5882 5882 5883 5884 5884 5885 5886 5887 5888 5888 5889 5890 5890 5890 5891 5891 5891 5891 5890 5890 5890 5889 5889 5889 5889 5888 5887 5886 5886 5885 5884 5884 5883 5883 5883 5883 5882 5882 5882 5881 5881
5881 5881 5882 5882 5882 5883 5884 5885 5886 5887 5887 5888 5889 5889 5889 5890 5890 5890 5890 5890 5889 5889 5888 5888 5887 5887 5887 5886 5885 5884 5883 5882 5882 5881 5881 5880 5880 5880 5879 5879 5879 5879 5879
5880 5881 5881 5881 5882 5883 5884 5885 5886 5887 5887 5888 5888 5888 5889 5889 5889 5889 5889 5889 5888 5888 5887 5886 5885 5885 5884 5884 5883 5882 5880 5879 5879 5878 5878 5877 5877 5877 5876 5876 5876 5876 5875
5880 5880 5881 5881 5882 5883 5884 5885 5885 5886 5887 5887 5887 5888 5888 5888 5888 5888 5888 5887 5887 5886 5885 5884 5883 5882 5882 5881 5880 5879 5878 5876 5876 5875 5874 5874 5874 5873 5873 5872 5872 5872 5872
5879 5879 5880 5881 5882 5883 5884 5884 5885 5885 5886 5886 5886 5887 5887 5887 5887 5886 5886 5885 5885 5884 5883 5882 5881 5880 5879 5878 5877 5876 5875 5873 5872 5872 5871 5870 5870 5870 5869 5869 5868 5868 5867
5878 5878 5879 5880 5881 5882 5883 5884 5884 5884 5885 5885 5885 5886 5885 5885 5885 5884 5884 5883 5883 5882 5881 5880 5879 5878 5876 5875 5874 5872 5871 5870 5869 5868 5867 5867 5866 5866 5865 5864 5864 5863 5863
5876 5877 5878 5879 5880 5881 5882 5883 5883 5883 5883 5883 5884 5884 5884 5883 5883 5882 5882 5881 5880 5879 5878 5877 5876 5875 5873 5872 5870 5869 5868 5867 5866 5864 5863 5862 5862 5861 5861 5860 5859 5859 5858
5874 5875 5876 5877 5879 5880 5880 5881 5881 5881 5881 5881 5881 5881 5881 5881 5880 5880 5879 5878 5877 5876 5875 5874 5873 5872 5870 5869 5867 5866 5864 5863 5862 5861 5860 5858 5858 5857 5856 5855 5855 5854 5853
5872 5873 5874 5875 5877 5877 5878 5879 5879 5879 5879 5879 5878 5878 5878 5877 5877 5877 5876 5875 5874 5873 5872 5870 5869 5868 5867 5865 5864 5862 5861 5860 5858 5857 5856 5855 5854 5853 5851 5851 5850 5848 5847
5869 5870 5871 5872 5874 5875 5876 5876 5876 5876 5876 5876 5875 5874 5874 5873 5873 5873 5872 5871 5870 5869 5867 5866 5865 5864 5862 5861 5859 5858 5856 5855 5854 5853 5851 5850 5849 5848 5846 5845 5844 5843 5841
5866 5867 5868 5869 5870 5871 5871 5872 5872 5872 5872 5871 5871 5870 5869 5868 5868 5867 5867 5866 5865 5864 5863 5861 5860 5859 5857 5856 5854 5853 5852 5850 5849 5847 5846 5845 5844 5842 5841 5839 5837 5836 5834
5862 5863 5864 5865 5866 5866 5867 5867 5867 5867 5867 5866 5865 5864 5863 5862 5862 5862 5861 5860 5859 5858 5857 5855 5854 5853 5851 5850 5849 5847 5846 5845 5843 5842 5840 5839 5837 5836 5834 5832 5830 5828 5826
5857 5858 5859 5860 5861 5861 5861 5862 5862 5861 5861 5860 5859 5857 5856 5855 5855 5854 5854 5853 5852 5851 5850 5849 5847 5846 5844 5843 5842 5841 5839 5838 5836 5835 5833 5832 5830 5828 5826 5824 5822 5820 5818
5852 5853 5854 5855 5856 5857 5856 5856 5856 5854 5853 5854 5853 5851 5850 5848 5848 5847 5846 5846 5845 5844 5843 5841 5839 5838 5836 5836 5835 5834 5832 5831 5829 5827 5826 5824 5821 5819 5817 5815 5813 5810 5808
5847 5848 5849 5849 5850 5850 5849 5849 5848 5847 5846 5846 5845 5844 5842 5841 5840 5840 5839 5838 5838 5837 5835 5834 5832 5830 5829 5828 5827 5826 5824 5823 5821 5819 5817 5815 5812 5810 5807 5805 5802 5799 5797
5841 5842 5843 5843 5843 5843 5842 5841 5841 5839 5838 5838 5838 5837 5836 5834 5833 5832 5831 5830 5830 5829 5828 5826 5823 5821 5820 5819 5818 5817 5816 5814 5812 5809 5807 5804 5802 5799 5796 5793 5790 5787 5785
5835 5836 5837 5837 5836 5836 5835 5834 5833 5832 5831 5831 5830 5829 5828 5827 5826 5825 5822 5821 5820 5819 5819 5818 5816 5813 5812 5811 5810 5808 5806 5804 5801 5798 5796 5793 5790 5787 5784 5781 5777 5774 5771
5829 5829 5830 5830 5829 5828 5828 5827 5825 5825 5823 5823 5822 5821 5820 5819 5818 5817 5815 5814 5813 5812 5811 5809 5807 5805 5804 5802 5800 5798 5795 5793 5790 5787 5784 5781 5777 5774 5771 5767 5764 5760 5756
Wind_Speed
5 6 6 6 7 7 6 5 3 2 2 3 4 4 5 5 6 6 7 8 9 9 10 10 10 10 10 10 10 10 10 10 10 10 10 10 10 10 10 10 10 10 11
5 6 7 7 7 6 5 4 3 3 3 3 3 4 4 5 5 6 6 7 8 8 8 8 9 9 9 9 9 9 10 10 10 10 10 10 10 10 10 11 11 11 11
6 7 6 6 6 6 4 4 3 3 3 3 3 3 3 4 4 5 5 6 6 6 6 7 7 7 8 8 8 9 9 9 10 10 10 10 11 11 11 11 11 11 12
6 6 6 6 5 5 4 3 3 2 3 2 2 2 2 2 3 3 3 4 5 5 5 6 6 7 7 8 8 8 9 9 9 9 10 10 10 11 11 11 11 11 12
6 6 5 5 4 4 3 3 2 2 2 2 2 2 2 2 2 2 3 3 4 4 5 5 6 6 7 7 8 8 8 9 9 9 9 10 10 11 11 11 11 11 11
6 5 4 4 3 3 3 2 3 2 2 1 2 2 2 2 2 2 2 3 4 4 5 5 6 6 7 7 8 8 9 9 9 9 10 10 11 11 12 12 12 11 11
4 4 4 3 3 2 2 2 3 3 2 2 2 2 2 2 2 2 2 3 4 5 5 6 7 7 7 8 8 9 9 9 9 10 10 10 11 11 12 12 12 12 12
3 3 3 3 3 3 2 2 3 3 3 3 3 3 3 2 2 2 2 3 4 5 6 6 7 7 7 8 9 10 10 10 10 11 11 11 11 11 12 13 13 13 13
3 2 3 3 4 4 3 3 4 4 4 3 3 3 3 3 2 2 2 3 4 5 6 7 7 8 7 8 9 10 11 11 12 12 12 12 12 13 14 14 14 14 14
2 2 3 4 4 4 4 4 4 5 5 4 4 4 3 3 3 3 3 3 4 5 7 8 9 9 8 8 9 10 11 12 12 13 13 13 14 14 15 15 15 15 16
2 2 3 4 5 5 5 5 5 5 5 5 5 4 4 4 4 4 4 5 6 7 8 9 10 11 10 10 11 12 13 13 14 14 14 15 15 15 16 16 17 17 18
3 3 3 3 4 4 5 6 6 6 6 6 6 5 5 5 5 5 6 6 7 8 9 10 11 12 12 12 13 13 14 14 15 16 16 17 17 17 18 18 19 19 20
3 3 4 4 4 5 5 6 6 6 7 6 6 6 7 7 7 7 7 8 9 9 10 11 12 12 13 13 13 14 14 15 16 17 17 18 19 19 19 20 20 21 22
5 4 5 5 6 6 7 7 8 8 7 7 7 7 7 8 9 9 9 10 10 10 11 12 13 13 13 14 14 14 15 15 16 17 18 19 20 21 21 22 22 22 23
6 6 6 6 7 8 8 8 9 9 9 8 9 9 9 9 10 11 11 11 11 11 12 13 13 14 14 14 15 15 15 16 17 18 19 20 21 21 22 22 23 24 25
8 8 7 8 9 9 10 10 10 11 11 11 10 11 11 12 13 13 13 13 13 13 14 15 15 15 15 15 15 16 16 16 16 18 19 21 21 22 23 24 25 25 26
10 10 9 10 10 12 12 13 13 14 14 14 14 14 14 14 15 15 15 15 16 16 16 16 17 17 17 17 17 17 17 17 18 18 19 20 22 23 24 25 26 27 28
13 12 10 12 13 13 14 15 16 17 17 17 16 16 17 17 17 17 18 18 19 19 19 19 19 19 19 19 18 18 18 19 20 20 21 21 23 24 25 26 28 29 30
15 14 13 13 14 16 17 17 18 19 19 20 19 19 20 20 21 20 21 21 22 22 22 22 22 22 22 21 21 21 22 22 22 22 22 23 25 26 27 29 30 31 32
18 17 17 17 17 19 19 20 21 22 23 23 24 24 24 23 23 23 24 24 25 26 26 25 25 25 25 24 24 24 25 24 24 25 25 26 27 29 31 32 33 34 36
21 21 21 21 21 22 23 23 24 25 26 27 28 27 27 27 26 26 27 28 29 28 28 28 28 28 27 26 27 27 27 27 27 28 29 31 32 34 35 36 37 38 39
22 21 22 23 24 26 27 28 28 28 28 29 31 32 30 29 29 29 30 31 31 30 30 31 33 31 30 29 30 30 30 29 30 31 32 34 36 38 39 40 41 42 44
25 25 26 26 26 27 29 30 31 32 31 32 33 34 33 32 32 32 33 33 33 33 33 35 35 33 32 31 31 31 32 32 34 35 36 37 39 41 42 44 45 46 47
28 28 30 30 29 29 30 31 33 34 34 33 32 32 32 32 33 34 35 34 34 34 34 35 37 35 34 33 33 34 36 37 39 39 40 41 43 44 46 48 49 50 52
31 31 32 31 31 32 32 34 37 36 34 33 34 33 34 34 34 34 34 34 35 35 36 36 36 37 36 35 36 38 39 41 42 43 43 45 46 48 49 50 52 54 55
32 33 33 33 33 34 34 35 37 37 37 35 34 34 34 34 35 37 37 37 36 36 36 36 37 38 38 40 40 41 42 43 44 45 47 48 50 52 53 54 55 57 59
Wind_Direction
303 300 291 283 279 275 272 270 260 245 248 261 275 286 293 298 303 307 312 315 317 320 321 321 320 319 319 319 318 315 314 312 311 308 304 301 298 296 293 289 285 280 277
302 299 288 276 273 269 269 270 263 252 247 246 254 267 278 289 299 307 312 314 314 316 319 319 319 318 318 318 317 315 313 310 308 306 303 301 299 295 290 287 285 282 280
304 297 287 272 266 262 261 263 261 258 256 247 245 247 254 268 283 295 305 310 314 318 321 321 319 319 319 317 315 313 312 310 306 304 302 299 297 294 290 286 283 281 281
307 300 285 269 260 253 251 248 245 247 247 245 240 236 236 248 263 280 299 309 314 318 319 319 318 319 319 317 315 314 311 307 305 303 300 297 295 293 289 285 283 281 282
305 298 278 263 252 240 228 220 208 215 223 224 229 232 232 239 254 279 299 306 311 314 316 318 319 320 319 316 314 312 308 305 303 302 299 295 293 292 289 286 283 283 284
301 288 265 245 230 215 203 192 184 189 194 204 220 223 232 248 265 289 302 307 311 314 316 318 318 318 316 312 310 307 303 301 300 298 295 293 292 292 291 288 285 284 287
294 274 247 221 198 185 173 166 177 180 183 194 204 213 228 248 266 283 298 304 309 314 317 317 316 316 317 313 306 302 298 298 296 294 292 292 292 292 291 289 287 286 286
284 260 224 192 176 173 172 173 180 181 183 190 197 207 221 237 250 266 280 295 305 312 313 314 316 318 319 314 306 301 298 295 292 290 289 289 289 289 291 290 288 286 286
271 234 195 175 167 170 170 171 176 181 185 191 196 203 210 218 233 251 269 291 301 304 307 310 311 313 315 312 304 299 295 293 290 288 287 287 288 288 288 286 285 284 283
258 207 180 166 160 161 164 165 173 181 187 189 192 197 203 215 233 254 268 283 291 297 301 304 305 305 306 304 298 295 291 289 288 286 285 285 286 287 286 284 284 282 280
242 189 168 162 158 160 167 170 177 184 190 193 199 205 212 223 236 251 264 275 285 291 295 299 302 301 299 295 292 291 289 287 285 285 284 282 283 284 283 282 281 281 279
234 195 172 164 170 174 176 180 188 193 199 203 209 213 221 228 238 251 262 273 283 289 295 298 302 302 299 294 291 290 288 284 281 281 281 281 282 282 280 280 278 279 279
238 204 191 187 192 195 198 201 202 204 208 214 221 226 231 237 246 255 262 274 281 286 291 297 299 302 300 298 295 290 287 284 280 279 279 280 279 280 281 280 280 279 277
232 217 209 208 212 215 217 218 216 216 217 223 232 236 239 245 252 256 264 273 281 287 291 295 299 301 301 299 297 293 288 285 281 279 280 280 280 281 281 280 280 279 278
237 232 224 221 224 225 224 225 224 224 224 229 237 241 245 250 254 259 266 271 277 284 288 292 296 300 300 301 301 297 292 290 283 279 280 280 280 282 282 280 281 279 279
237 237 233 229 231 233 234 235 235 237 236 237 240 244 248 252 255 258 264 269 273 279 285 289 292 296 298 300 300 297 292 290 286 284 284 282 281 282 282 281 281 279 278
233 235 238 239 240 240 241 244 246 246 245 243 243 247 250 253 257 261 265 268 272 277 283 288 291 292 294 295 296 295 291 288 288 288 287 284 282 283 284 283 281 280 279
236 238 240 240 242 245 249 251 251 250 249 248 248 250 253 256 259 262 266 270 273 276 280 285 288 288 290 290 292 292 291 288 286 286 286 284 284 283 282 282 281 281 280
239 241 243 244 246 247 250 251 253 254 256 255 254 253 256 259 262 265 268 272 276 277 279 281 283 285 285 286 288 289 289 287 285 284 283 282 282 282 282 282 281 280 280
240 241 242 247 250 249 250 256 259 259 260 258 257 256 258 261 263 267 269 271 274 276 279 280 280 282 283 282 284 286 286 286 286 283 281 281 282 282 282 281 281 280 280
242 243 245 247 252 255 255 257 260 260 260 260 264 263 265 263 264 268 270 271 273 276 278 277 280 281 282 282 283 284 284 284 285 283 282 280 281 282 282 282 282 281 281
244 248 250 251 254 256 258 257 258 261 262 265 268 266 267 266 267 270 271 273 273 276 278 279 279 280 282 283 283 284 285 285 286 284 284 283 283 283 283 283 283 283 282
243 246 249 253 256 259 261 261 263 263 267 266 269 267 269 270 270 273 273 275 277 279 282 282 282 283 282 283 285 286 286 287 286 285 286 286 285 284 284 284 284 284 284
245 248 251 254 258 262 264 264 264 266 269 273 276 277 279 280 278 277 278 278 280 280 282 284 284 283 286 286 287 287 287 288 289 286 286 286 286 285 285 284 284 284 284
247 249 253 255 259 263 265 268 268 269 273 276 280 281 282 283 284 288 287 286 284 281 280 285 285 286 287 287 288 288 288 288 288 288 287 287 287 287 286 286 286 286 286
250 253 257 261 262 265 270 274 273 275 276 280 286 288 288 288 288 289 287 287 287 284 285 288 289 287 287 287 289 290 289 288 287 287 287 287 288 288 287 287 287 287 286